Torna al catalogo

STARLINK-36366

AttivoComunicazioniSSO
NORAD 68122·PAYLOAD·🇺🇸 United States

Lanciato Mar 8, 2026 da Vandenberg Space Force Base

Loading…

Prossimi Passaggi (prossime 24 ore)

TLE

AggiornatoSource: CelesTrak SupGP

Epoca: Sep 15, 2026, 03:47 UTC

1 68122C 26044X   26258.15812500  .00032525  00000+0  10086-2 0  2581
2 68122  97.2855 217.2380 0001866 103.6730 221.6011 15.33454301    14

Traccia STARLINK-36366 in tempo reale con AllMySat

Download on the App Store